Weather in Tatarskaya Karabolka

Russia / Chelyabinsk Oblast     55°56′42″N   61°10′48″E
temp.,
°C
wind,
m/s
gust,
m/s
humid.,
%
clouds,
%
prec.,
mm/h
press.,
hPa
HPBL,
m
29 july, thu
thu2923:00+10w467119 0.0 101297
02:00+9nw37755 0.0 1012138
05:00+7wnw338925 0.0 101242
08:00+13wnw366699 0.0 1012459
11:00+18wnw694422 0.0 10111687
14:00+21wnw68335 0.0 10092217
17:00+22wnw6103151 0.0 10082837
20:00+18w355311 0.0 100979
30 july, fri
fri3023:00+16wsw4105599 0.0 1009224
02:00+13wsw486354 0.0 1008130
05:00+14wsw41058100 0.0 1008172
08:00+16sw4115196 0.0 1007322
11:00+23wsw6936100 0.0 10061126
14:00+21sw6949100 0.0 10041094
17:00+16sw31095100 3.9 1005592
20:00+16wsw3995100 0.5 1005507
31 july, sat
sat3123:00+16wsw489657 0.5 1005284
02:00+15wsw410974 0.0 1006232
05:00+15w410964 0.0 1007232
08:00+19w478398 0.0 1008344
11:00+23w5767100 0.5 1008802
14:00+27w4642100 0.1 10072436
17:00+25nnw3351100 0.1 1007671
20:00+19ene227990 0.3 100856
1 august, sun
sun123:00+17ssw3391100 1.2 100848
02:00+17sw3692100 0.4 1006111
05:00+16sw4797100 2.2 1007164
08:00+20w51188100 0.6 1007448
11:00+25wnw576095 0.8 10071161
14:00+27w674592 0.1 10072169
17:00+26w69457 0.1 10071980
20:00+22wnw38564 0.0 1008303
2 august, mon
mon223:00+18wnw476993 0.0 1010137
02:00+16w487833 0.0 1010125
05:00+15wnw4979100 0.0 1011163
08:00+20wnw48645 0.0 1012374
11:00+25nw58455 0.0 10121739
14:00+28nw683581 0.0 10112648
17:00+25wnw485010 0.0 1012510
20:00+23w486161 0.0 1012216